Location: Bucquoy
(50.1391°N, 2.7097°E)
Time: 09:13:12
(UTC+00:00)

Cosmos 1821 Rocket - Pass Details

Date: 06 May 2021
Orbit: 945 x 1004 km, 82.9° (Epoch: 21 June)

Event Time Altitude Azimuth Distance (km) Brightness Sun altitude
Rises 00:29:25 0° 348° (NNW) 3,738 8.2 -22.6°
Reaches altitude 10° 00:31:58 10° 346° (NNW) 2,788 7.3 -22.5°
Maximum altitude 00:38:19 67° 266° (W) 1,084 4.1 -22.3°
Enters shadow 00:40:25 43° 200° (SSW) 1,378 4.3 -22.2°
